Location: Rock Island IL
(41.5000°N, 90.5500°W)
Time: 08:33:34
(UTC-05:00)

Daily predictions for brighter satellites

Satellite Brightness Start Highest point End
(mag) Time Altitude Azimuth Time Altitude Azimuth Time Altitude Azimuth
Cosmos 1092 Rocket 4.4 20:17:09 10° NNW 20:23:29 73° W 20:29:47 10° S
Cosmos 1634 Rocket 4.1 20:17:59 10° S 20:24:17 88° E 20:30:40 10° N
SL-16 R/B 2.4 20:20:38 10° SSW 20:26:18 83° WNW 20:32:02 10° NNE
ATLAS CENTAUR R/B 4.4 20:25:30 10° WSW 20:27:28 15° SW 20:30:25 10° S
Resurs 1-3 3.6 20:25:38 10° SSE 20:30:02 84° ENE 20:34:27 10° NNW
Intercosmos 25 Rocket 3.3 20:26:47 10° S 20:30:02 61° E 20:34:28 10° NNE
Lacrosse 4 Rocket 2.4 20:25:52 10° NW 20:30:04 49° WSW 20:34:20 10° S
USA 186 1.8 20:27:19 10° SSE 20:30:05 51° ENE 20:33:03 10° N
Helios 1B rocket 3.0 20:28:55 10° NNE 20:32:42 35° E 20:36:28 10° SSE
Cosmos 1992 Rocket 4.0 20:28:38 10° SSW 20:33:51 81° ESE 20:39:07 10° NNE
CZ-2D R/B 3.4 20:33:13 10° S 20:37:07 83° WSW 20:41:01 10° NNW
YAOGAN 6 4.4 20:35:08 10° ESE 20:37:31 17° ENE 20:39:55 10° NNE
Cosmos 1844 Rocket 4.1 20:37:39 10° N 20:41:57 22° NE 20:46:13 10° ESE
Cosmos 2278 Rocket 4.3 20:43:28 10° NNE 20:45:18 11° NE 20:47:07 10° ENE
USA 267 3.5 20:39:05 10° NE 20:45:39 79° NW 20:52:11 10° SW
Cosmos 2333 Rocket 4.0 20:46:22 11° ESE 20:47:33 11° E 20:49:11 10° E
DELTA 2 R/B(2) 4.5 20:45:51 10° W 20:49:29 45° SSW 20:50:53 17° SE
Cosmos 2242 Rocket 4.2 20:45:18 10° SSW 20:49:45 63° W 20:54:11 10° N
Cosmos 1655 Rocket 4.1 20:43:32 10° N 20:49:57 86° E 20:56:18 10° S
Meteor 2-10 Rocket 4.0 20:44:51 10° SSE 20:50:28 51° E 20:56:01 10° NNE
Cosmos 2279 Rocket 4.1 20:53:13 10° S 20:59:27 84° W 21:05:43 10° N
SJ-11-01 4.3 20:55:50 10° SSE 21:00:26 64° ENE 21:05:04 10° N
Abrixas rocket 4.2 20:59:03 10° NW 21:01:47 24° N 21:04:31 10° ENE
BREEZE-M DEB (TANK) 4.2 20:58:34 10° WNW 21:01:48 53° N 21:10:43 10° E
CZ-4B DEB 2.5 21:00:35 13° SSE 21:03:10 70° ENE 21:06:12 10° N
Cosmos 1933 3.5 20:59:50 10° SSW 21:03:52 74° W 21:07:54 10° N
Cosmos 2219 Rocket 3.4 21:01:52 14° SE 21:04:40 20° E 21:08:42 10° NE
Cosmos 968 Rocket 3.5 20:59:54 10° NNW 21:05:07 75° ENE 21:09:47 13° SSE
Resurs 01 Rocket 3.6 21:09:49 10° SSW 21:13:39 28° W 21:17:31 10° NW
SAR-Lupe-4 4.1 21:12:51 10° S 21:16:23 58° WSW 21:19:56 10° NNW
Cosmos 1908 Rocket 3.4 21:12:57 10° N 21:17:18 79° E 21:20:54 15° SSE
USA 234 3.5 21:14:54 17° ESE 21:19:59 64° NE 21:26:26 10° NW
Meteor 1-29 3.4 21:20:04 10° N 21:23:31 64° WNW 21:26:55 10° SSW
Cosmos 1782 3.8 21:24:25 26° ESE 21:25:02 27° E 21:28:26 10° NNE
Cosmos 2263 Rocket 3.4 21:19:54 10° NW 21:25:03 39° WSW 21:30:11 10° S
Envisat 3.4 21:20:46 10° S 21:25:47 64° W 21:30:51 10° NNW
Meteor 1-26 Rocket 4.2 21:21:23 10° S 21:27:05 88° E 21:32:57 10° N
Sich 1 Rocket 3.7 21:24:04 10° N 21:28:35 79° W 21:32:21 15° S
Helios 1A 4.2 21:26:17 10° S 21:30:17 41° W 21:34:19 10° NNW
Cosmos 1782 Rocket 3.5 21:27:43 10° N 21:32:05 66° E 21:34:23 27° SSE
Okean 1-7 3.0 21:33:16 20° S 21:36:10 63° E 21:40:32 10° NNE
Cosmos 1867 4.2 21:32:12 10° NW 21:37:28 51° WSW 21:41:15 18° S
H-2A R/B 3.2 21:37:56 23° E 21:39:20 26° ENE 21:43:21 10° NNE
CZ-4C R/B 3.7 21:33:25 10° NNW 21:39:51 37° NE 21:44:27 20° E
MetOp-B 4.3 21:38:14 28° SE 21:40:58 58° ENE 21:46:14 10° N
Cosmos 1939 Rocket 3.9 21:38:03 13° S 21:41:29 44° W 21:45:18 10° NNW
Cosmos 2237 4.3 21:36:23 10° SSW 21:42:07 84° WNW 21:47:53 10° NNE
SeaSat 1 3.6 21:41:46 24° E 21:43:38 31° NE 21:47:57 10° N
Cosmos 2084 4.5 21:41:39 10° NNW 21:45:03 29° NE 21:46:00 26° ENE
ERS-1 Rocket 2.9 21:42:00 24° SSE 21:45:04 88° WSW 21:50:08 10° NNW
USA 245 4.3 21:43:25 31° SE 21:45:35 48° ENE 21:50:05 10° N
Cosmos 2360 Rocket 3.3 21:40:25 10° SW 21:45:51 47° WNW 21:51:20 10° NNE
Cosmos 1570 Rocket 4.3 21:47:23 32° SSE 21:49:08 44° ESE 21:54:07 10° NNE
SPOT 5 3.0 21:48:34 37° SE 21:50:04 53° ENE 21:54:31 10° N
Okean 2 Rocket 3.0 21:45:39 10° N 21:50:11 74° E 21:51:48 39° SSE
COSMOS 2428 2.6 21:46:00 10° SSW 21:51:41 89° ESE 21:57:26 10° NNE
ATLAS 5 CENTAUR R/B 3.6 21:49:13 10° NW 21:54:46 36° WSW 21:59:23 16° S
Atlas Centaur 2 3.5 21:50:52 10° WSW 21:56:48 33° S 21:58:46 29° SSE
Cosmos 1980 4.2 21:58:04 36° ESE 21:58:24 36° ESE 22:03:30 10° NE
NOAA 11 4.1 21:56:06 32° SSE 21:58:49 87° ENE 22:04:20 10° NNW
Cosmos 2208 Rocket 4.2 21:59:30 39° SSE 22:01:04 51° ESE 22:06:13 10° NNE
Cosmos 1844 3.7 21:55:33 10° NNW 22:01:13 67° ENE 22:03:06 41° SE
ARGOS 3.1 22:00:07 39° SE 22:02:06 70° ENE 22:07:28 10° N
Cosmos 1606 2.7 22:02:44 61° E 22:02:44 61° E 22:06:20 10° NNE
NOSS 3-1 (C) 3.2 21:57:07 10° SSW 22:02:48 70° ESE 22:09:10 10° NE
Meteor 1-10 Rocket 4.3 22:00:10 29° S 22:03:16 68° E 22:09:04 10° NNE
SL-16 R/B 4.2 22:07:51 12° ENE 22:07:51 12° ENE 22:08:40 10° ENE
Meteor 1-11 Rocket 4.2 22:02:37 10° N 22:07:50 41° ENE 22:08:49 38° E
Milstar 3 4.4 22:03:48 10° WSW 22:08:13 17° SSW 22:09:38 16° S
ASTEX 1 4.2 22:08:04 33° E 22:08:22 33° ENE 22:12:49 10° NNE
MOS 1-B Rocket 3.8 22:06:17 38° SSE 22:08:35 76° ENE 22:14:11 10° N
USA 229 DEB 4.5 22:03:26 10° SW 22:10:04 53° NW 22:16:53 10° NNE
USA 229 4.5 22:03:32 10° SW 22:10:11 53° NW 22:16:59 10° NNE
YAOGAN 6 4.3 22:09:21 21° SW 22:10:52 29° W 22:14:04 10° NW
Landsat 7 4.4 22:12:37 40° E 22:13:00 40° ENE 22:17:27 10° N
Cosmos 1898 Rocket 4.3 22:15:09 10° N 22:19:56 36° ENE 22:20:27 35° ENE
NOSS 3-1 (A) 3.2 22:16:00 20° SSW 22:20:04 68° ESE 22:26:26 10° NE
ATLAS 2AS CENTAUR R/B 4.4 22:23:55 19° E 22:23:55 19° E 22:27:18 10° ENE
Cosmos 2151 Rocket 3.4 22:20:20 10° N 22:24:48 84° E 22:25:01 80° SE
Cosmos 2237 Rocket 2.2 22:24:38 55° SE 22:25:05 56° ESE 22:30:39 10° NNE
Cosmos 1417 Rocket 4.4 22:22:51 41° S 22:25:13 77° E 22:31:35 10° N
Cosmos 1844 Rocket 3.0 22:20:46 10° NNW 22:26:14 58° WSW 22:27:55 41° SSW
SPOT 1/Viking Rocket 3.4 22:26:06 59° SSE 22:27:08 86° ENE 22:32:23 10° NNW
Cosmos 1745 Rocket 4.2 22:20:59 10° N 22:27:12 54° ENE 22:28:24 47° ESE
Terra 2.5 22:28:13 40° ENE 22:28:13 40° ENE 22:32:34 10° N
Cosmos 2278 Rocket 2.2 22:24:56 10° NNW 22:30:34 64° ENE 22:31:26 56° ESE
Cosmos 1536 4.3 22:27:09 10° NNE 22:29:40 27° NE 22:29:40 27° NE
Cosmos 2333 Rocket 2.1 22:28:14 34° SSW 22:30:52 86° ESE 22:36:41 10° NNE
NOSS 0 Rocket 3.8 22:30:34 38° SSW 22:33:04 78° ESE 22:39:15 10° NNE
Cosmos 1674 Rocket 4.0 22:36:42 51° NE 22:36:42 51° NE 22:40:07 10° NNE
Okean 1 Rocket 4.0 22:32:33 10° N 22:35:57 37° NE 22:35:57 37° NE
Meteor 2-6 Rocket 4.5 22:33:58 31° SSW 22:36:54 72° W 22:42:52 10° N
Abrixas rocket 4.0 22:35:52 10° NW 22:37:53 31° NNW 22:37:53 31° NNW
SL-19 R/B 4.4 22:36:04 10° NNE 22:41:52 55° E 22:41:52 55° E
ATLAS 3B R/B 4.3 22:40:25 10° NNW 22:45:50 24° NE 22:49:10 17° ENE
H-2A R/B 2.5 22:47:46 57° NNE 22:47:46 57° NNE 22:51:25 10° N
Cosmos 2219 Rocket 2.8 22:43:24 14° SW 22:48:07 55° WNW 22:53:40 10° NNE
Cosmos 1633 3.8 22:45:25 10° NNW 22:48:06 41° NW 22:48:06 41° NW
Gbstr 26 Del rocket 4.4 22:42:20 10° SW 22:50:04 77° SE 22:58:13 10° ENE
Cosmos 468 Rocket 4.3 22:52:00 56° ENE 22:52:00 56° ENE 22:56:27 10° NNE
Meteor 1-5 Rocket 4.3 22:52:26 10° N 22:58:06 61° ENE 22:58:06 61° ENE
CZ-4B R/B 4.5 22:54:25 10° NNE 22:57:20 33° NE 22:57:20 33° NE
USA 234 3.9 23:02:14 37° SSW 23:03:10 39° SW 23:09:13 10° WNW
Cosmos 1553 Rocket 4.3 23:06:14 44° SW 23:08:04 62° W 23:14:13 10° N
Cosmos 1300 Rocket 4.4 23:05:12 10° NNW 23:08:37 49° NW 23:08:37 49° NW
Cosmos 1346 Rocket 4.5 23:14:36 31° WNW 23:14:36 31° WNW 23:17:40 10° N
H-2A R/B 3.0 23:18:33 36° W 23:18:35 36° W 23:23:08 10° NNW
Cosmos 2315 Rocket 4.2 23:19:16 56° ENE 23:19:16 56° ENE 23:24:47 10° NNE
SeaSat 1 3.5 23:21:33 36° W 23:21:33 36° W 23:25:38 10° NW
Cosmos 2298 Rocket 4.3 23:18:36 10° NNW 23:23:16 65° NW 23:23:16 65° NW
Cosmos 2369 Rocket 4.3 23:20:58 10° N 23:24:16 16° NE 23:25:24 15° ENE
Cosmos 2297 3.8 23:22:18 10° NNW 23:27:27 72° N 23:27:27 72° N
CZ-4C R/B 3.0 23:21:42 10° NW 23:28:50 60° WSW 23:29:38 57° SW
Cosmos 883 Rocket 4.4 23:35:25 76° WNW 23:35:25 76° WNW 23:41:32 10° N
Cosmos 1937 Rocket 4.0 23:30:14 10° NNW 23:34:27 54° NW 23:34:27 54° NW
ATLAS CENTAUR R/B 3.7 23:45:52 20° NNE 23:45:52 20° NNE 23:47:15 10° NNE
Cosmos 1709 Rocket 4.0 23:40:48 10° N 23:46:56 77° WNW 23:46:56 77° WNW
SL-16 R/B 2.6 23:49:41 61° NNW 23:49:41 61° NNW 23:54:33 10° NNE
